DELTA 1 DEB, 42574

Orbit data source: Space-Track

DELTA 1 DEB, 42574 is space debris in SSO originally from a launch on Tue, 06 Nov 1973 UTC launched from the Air Force Western Test Range (AFWTR). Debris objects in space refer to the collection of defunct objects orbiting the Earth. Examples of debris include non-operational satellites, rocket bodies, and fragments generated from explosions, collisions, or faulty payload assembly.

Loading next visibility...
Identifier
42574, 1973-086HN
Orbit
SSO
Country
Flag of USUS
Related business
Manufacturer
Unknown
Mission
Spacecraft
Bus & Motor
Unknown
Mass
Unknown
Launch date (UTC)
1973-11-06 (53 years ago)
Launch vehicle
Unknown
Launch site
Air Force Western Test Range (AFWTR)
Object type
Payload
Rocket body
Debris
Shape & HBR
Unknown shape, 0.1 m
Radar Cross Section
Medium (>0.1 m² and <1 m²)

Expand to show TLE details & history
Last TLE update: 2 weeks ago

TLE from 2 weeks ago
0 DELTA 1 DEB
1 42574U 73086HN  26252.19445054  .00000137  00000-0  12276-2 0  9996
2 42574 102.0309 245.3978 0026030  96.1841 264.2193 12.48197864583549
Epoch: 2026-09-09T04:40Z
TLE epoch observation values (Epoch: 2026-09-09T04:40:00.526Z)
Latitude
-0.00008°
Longitude
-172.85438°
Altitude
1,476.712 km
Speed
7.124 km/s
True Right ascension
16h 21m 35s
True Declination
0° 00' 00"
Sunlit
Object was in daylight at epoch
Visualization orbit readout
Latitude
Unknown
Longitude
Unknown
Altitude
Unknown
Speed
Unknown
Apparent Right ascension
Unknown
Apparent Declination
Unknown
Sunlit
N/A
Visualization observer readout
Local Sidereal Time
15:01:33
Azimuth
Unknown
Elevation
Unknown
Doppler factor
Unknown
Orbital elements
Apogee altitude
1,490.035 km
Perigee altitude
1,449.18 km
Semi-major axis
7,847.745 km
Eccentricity
0.0026
Inclination
102.0309°
RAAN
245.3978°
Arg. of periapsis
96.1841°
True anomaly
263.92263°
Mean anomaly
264.2193°
Eccentric anomaly
264.07096°
Mean motion
3.12195 °/min
Orbital period
115.31 mins
BSTAR
0.0012276
Loading maneuver chart data...
Computing Atmospheric mass density...
Loading historical data...
Loading historical data...
Loading historical data...
Loading historical data...
Loading historical data...
Loading historical data...
Loading historical data...

Documentation

Showing up to 5 results
|